THOR ABLESTAR DEB, 134

Orbit data source: Space-Track

THOR ABLESTAR DEB, 134 is space debris in LEO originally from a launch on Thu, 29 Jun 1961 UTC launched from the Air Force Eastern Test Range (AFETR). Debris objects in space refer to the collection of defunct objects orbiting the Earth. Examples of debris include non-operational satellites, rocket bodies, and fragments generated from explosions, collisions, or faulty payload assembly.

Loading next visibility...
Identifier
134, 1961-015U
Orbit
LEO
Country
Flag of USUS
Related business
Manufacturer
Unknown
Mission
Spacecraft
Bus & Motor
Unknown
Mass
Unknown
Launch date (UTC)
1961-06-29 (64 years ago)
Launch vehicle
Unknown
Launch site
Air Force Eastern Test Range (AFETR)
Object type
Payload
Rocket body
Debris
Shape & HBR
Unknown shape, 1.1 m
Radar Cross Section
Large (>1 m²)

Expand to show TLE details & history
Last TLE update: 15 hours ago

TLE from 15 hours ago
0 THOR ABLESTAR DEB
1   134U 61015U   25353.47073392  .00000046  00000-0  84744-4 0  9995
2   134  66.8794 129.2486 0085575 317.9768  41.4770 13.97694421280585
Epoch: 2025-12-19T11:17Z
TLE epoch observation values (Epoch: 2025-12-19T11:17:51.410Z)
Latitude
-0.00007°
Longitude
-128.52706°
Altitude
857.435 km
Speed
7.448 km/s
True Right ascension
08h 36m 59s
True Declination
0° 00' 00"
Sunlit
Object was in full shadow at epoch
Visualization orbit readout
Latitude
Unknown
Longitude
Unknown
Altitude
Unknown
Speed
Unknown
Apparent Right ascension
Unknown
Apparent Declination
Unknown
Sunlit
N/A
Visualization observer readout
Local Sidereal Time
00:55:20
Azimuth
Unknown
Elevation
Unknown
Doppler factor
Unknown
Orbital elements
Apogee altitude
962.453 km
Perigee altitude
837.885 km
Semi-major axis
7,278.306 km
Eccentricity
0.00856
Inclination
66.8794°
RAAN
129.2486°
Arg. of periapsis
317.9768°
True anomaly
42.13171°
Mean anomaly
41.477°
Eccentric anomaly
41.80383°
Mean motion
3.49541 °/min
Orbital period
102.99 mins
BSTAR
0.000084744
Loading maneuver chart data...
Computing Atmospheric mass density...

Documentation

Showing up to 5 results
|